CAPE
15 11 7 9 11 9 11 13 10 12 12 12 11 8 6 7 2 0 0 0 0 0 0 0 0 0 0 0 0 0 0 0 0 0 0 0 0 0 0 0 0 0 0 0 0
14 12 13 11 11 8 9 7 7 7 8 11 12 10 8 4 0 0 0 0 0 0 0 0 0 0 0 0 0 0 0 0 0 0 0 0 0 0 0 0 0 0 0 0 0
13 13 10 8 8 6 7 5 5 4 4 5 8 9 8 0 0 0 0 0 0 0 0 0 0 0 0 0 0 0 0 0 0 0 0 0 0 0 0 0 0 0 0 0 0
16 13 11 11 9 8 5 5 3 3 2 4 5 7 5 0 0 0 0 0 0 0 0 0 0 0 0 0 0 0 0 0 0 0 0 0 0 0 0 0 0 0 0 0 0
12 13 11 8 6 5 4 3 2 0 1 4 8 6 0 0 0 0 0 0 0 0 0 0 0 0 0 0 0 0 0 0 0 0 0 0 0 0 0 0 0 0 0 0 0
9 6 4 4 1 1 0 0 0 0 0 0 6 8 1 0 0 0 0 0 0 0 0 0 0 0 0 0 0 0 0 0 0 0 0 0 0 0 0 0 0 0 0 0 0
8 8 6 4 1 0 0 0 0 0 0 6 6 6 3 0 0 0 0 0 1 0 0 0 0 0 0 0 0 0 0 0 0 0 0 0 0 0 0 0 0 0 0 0 0
7 6 2 0 1 0 0 0 0 0 0 8 8 5 1 0 0 0 0 0 17 0 0 0 0 0 0 0 0 0 0 0 0 0 0 0 0 0 0 0 0 0 0 0 0
7 5 2 0 0 0 0 0 0 0 4 7 11 5 0 0 0 0 0 0 4 1 0 0 0 0 0 0 0 0 0 0 0 0 0 0 0 0 0 0 0 0 0 0 0
7 5 0 0 0 0 0 0 0 8 6 4 3 0 0 0 0 0 0 0 6 6 0 0 0 0 0 6 0 0 0 0 0 0 0 0 0 0 0 0 0 0 0 0 0
5 2 0 0 0 0 0 0 0 0 0 0 0 0 0 0 0 0 0 0 3 11 1 0 0 0 0 0 0 0 0 0 0 0 0 0 0 0 0 0 0 0 0 0 0
3 0 0 0 0 0 0 0 0 1 2 0 0 0 0 0 0 0 0 0 0 0 0 1 0 0 0 0 0 0 0 0 0 0 0 0 0 0 0 0 0 0 0 0 0
1 0 0 0 0 0 0 0 0 0 3 0 0 0 0 0 0 0 0 0 0 0 0 0 0 0 0 0 0 0 0 0 0 0 0 0 0 0 0 0 0 0 0 0 0
0 0 0 0 0 0 0 0 0 0 1 0 0 2 1 13 0 0 0 0 0 0 7 2 0 1 0 0 0 0 0 0 0 0 0 0 0 0 0 0 0 0 0 0 0
0 0 0 0 0 0 0 0 0 4 0 0 0 2 0 0 14 12 0 3 16 9 10 0 0 0 1 0 0 0 0 0 0 0 0 0 0 0 0 0 0 0 0 0 0
0 0 0 0 0 0 0 0 1 12 0 0 2 0 0 0 0 14 7 2 26 34 14 0 3 6 0 1 0 0 0 1 1 2 33 0 0 0 0 0 0 0 0 0 0
0 0 0 0 0 0 0 0 18 0 0 0 0 0 0 7 5 0 0 11 14 43 16 6 9 18 21 20 0 8 25 44 40 52 1 0 0 0 0 0 0 0 0 0 0
0 0 0 0 0 0 0 1 0 0 0 0 0 0 0 1 0 1 0 5 3 4 8 45 13 10 17 28 25 22 32 23 9 12 2 0 0 0 0 0 0 0 0 1 1
0 0 0 0 0 0 0 0 0 0 2 6 2 6 11 0 0 0 2 8 10 12 5 7 29 22 0 17 33 44 54 2 5 0 7 0 0 0 0 0 0 0 0 0 1
0 0 0 0 0 0 0 0 0 0 3 3 10 28 26 19 12 7 0 3 2 0 1 17 5 0 12 27 20 35 3 51 59 36 14 12 9 2 0 1 1 0 0 0 0
0 0 0 0 0 0 0 0 0 0 6 3 13 28 20 16 14 17 34 5 0 0 1 17 29 0 4 31 52 74 21 59 15 25 38 12 5 6 4 0 2 0 1 1 0
0 0 0 0 0 0 0 0 0 0 3 11 14 20 17 23 14 4 42 1 0 2 7 19 9 9 0 0 2 51 0 2 136 18 44 32 4 4 0 0 2 2 2 1 1
0 0 0 0 0 0 0 0 0 2 4 12 11 13 17 25 13 5 0 0 0 0 3 1 8 5 0 15 0 19 11 10 2 2 86 86 5 12 11 2 2 3 2 1 0
0 0 0 0 0 0 0 0 0 2 3 6 5 8 20 23 13 11 16 3 0 1 0 0 3 18 10 3 9 7 6 5 8 10 14 46 4 1 2 3 3 1 2 1 0
0 0 0 0 0 0 1 2 2 6 5 6 9 11 16 15 16 16 13 12 0 0 0 0 0 0 0 0 0 0 1 0 2 1 2 1 2 6 6 10 10 6 2 1 1
0 2 0 1 1 3 0 2 3 9 15 11 23 17 13 32 43 25 27 19 0 0 0 1 3 0 0 0 0 2 0 1 0 0 5 2 1 7 6 1 2 6 6 3 3
15 17 30 2 1 3 3 3 10 16 12 15 17 18 22 22 0 0 6 1 0 0 0 2 12 20 7 0 0 0 4 2 2 3 3 0 7 3 3 4 4 4 5 8 6
CIN
-0 -0 -0 -0 -0 -0 -0 -0 -0 -0 -0 -0 -0 -0 -0 -0 -0 -0 -0 -0 -0 -0 -0 -0 -0 -0 -0 -0 -0 -0 -0 -0 -0 -0 -0 -0 -0 -0 -0 -0 -0 -0 -0 -0 -0
-0 -0 -0 -0 -0 -0 -0 -0 -0 -0 -0 -0 -0 -0 -0 -0 -0 -0 -0 -0 -0 -0 -0 -0 -0 -0 -0 -0 -0 -0 -0 -0 -0 -0 -0 -0 -0 -0 -0 -0 -0 -0 -0 -0 -0
-0 -0 -0 -0 -0 -0 -0 -0 -0 -0 -0 -0 -0 -0 -0 -0 -0 -0 -0 -0 -0 -0 -0 -0 -0 -0 -0 -0 -0 -0 -0 -0 -0 -0 -0 -0 -0 -0 -0 -0 -0 -0 -0 -0 -0
-0 -0 -0 -0 -0 -0 -0 -0 -0 -0 -0 -0 -0 -0 -0 -0 -0 -0 -0 -0 -0 -0 -0 -0 -0 -0 -0 -0 -0 -0 -0 -0 -0 -0 -0 -0 -0 -0 -0 -0 -0 -0 -0 -0 -0
-0 -0 -0 -0 -0 -0 -0 -0 -0 -0 -0 -0 -0 -0 -0 -0 -0 -0 -0 -0 -0 -0 -0 -0 -0 -0 -0 -0 -0 -0 -0 -0 -0 -0 -0 -0 -0 -0 -0 -0 -0 -0 -0 -0 -0
-0 -0 -0 -0 -0 -0 -0 -0 -0 -0 -0 -0 -0 -0 -0 -0 -0 -0 -0 -0 -0 -0 -0 -0 -0 -0 -0 -0 -0 -0 -0 -0 -0 -0 -0 -0 -0 -0 -0 -0 -0 -0 -0 -0 -0
-0 -0 -0 -0 -0 -0 -0 -0 -0 -0 -0 -0 -0 -0 -0 -0 -0 -0 -0 -0 -0 -0 -0 -0 -0 -0 -0 -0 -0 -0 -0 -0 -0 -0 -0 -0 -0 -0 -0 -0 -0 -0 -0 -0 -0
-0 -0 -0 -0 -0 -0 -0 -0 -0 -0 -0 -0 -0 -0 -0 -0 -0 -0 -0 -0 -0 -0 -0 -0 -0 -0 -0 -0 -0 -0 -0 -0 -0 -0 -0 -0 -0 -0 -0 -0 -0 -0 -0 -0 -0
-0 -0 -0 -0 -0 -0 -0 -0 -0 -0 -0 -1 -0 -0 -0 -0 -0 -0 -0 -0 -0 -0 -0 -0 -0 -0 -0 -0 -0 -0 -0 -0 -0 -0 -0 -0 -0 -0 -0 -0 -0 -0 -0 -0 -0
-0 -0 -0 -0 -0 -0 -0 -0 -0 -2 -1 -0 -0 -0 -0 -0 -0 -0 -0 -0 -0 -0 -0 -0 -0 -0 -0 -0 -0 -0 -0 -0 -0 -0 -0 -0 -0 -0 -0 -0 -0 -0 -0 -0 -0
-0 -0 -0 -0 -0 -0 -0 -0 -0 -0 -0 -0 -0 -0 -0 -0 -0 -0 -0 -0 -0 -0 -0 -0 -0 -0 -0 -0 -0 -0 -0 -0 -0 -0 -0 -0 -0 -0 -0 -0 -0 -0 -0 -0 -0
-0 -0 -0 -0 -0 -0 -0 -0 -0 -0 -0 -0 -0 -0 -0 -0 -0 -0 -0 -0 -0 -0 -0 -0 -0 -0 -0 -0 -0 -0 -0 -0 -0 -0 -0 -0 -0 -0 -0 -0 -0 -0 -0 -0 -0
-0 -0 -0 -0 -0 -0 -0 -0 -0 -0 -0 -0 -0 -0 -0 -0 -0 -0 -0 -0 -0 -0 -0 -0 -0 -0 -0 -0 -0 -0 -0 -0 -0 -0 -0 -0 -0 -0 -0 -0 -0 -0 -0 -0 -0
-0 -0 -0 -0 -0 -0 -0 -0 -0 -0 -0 -0 -0 -0 -0 -0 -0 -0 -0 -0 -0 -0 -0 -0 -0 -0 -0 -0 -0 -0 -0 -0 -0 -0 -0 -0 -0 -0 -0 -0 -0 -0 -0 -0 -0
-0 -0 -0 -0 -0 -0 -0 -0 -0 -0 -0 -0 -0 -0 -0 -0 -0 -0 -0 -0 -0 -0 -0 -0 -1 -0 -0 -0 -0 -0 -0 -0 -0 -0 -0 -0 -0 -0 -0 -0 -0 -0 -0 -0 -0
-0 -0 -0 -0 -0 -0 -0 -0 -0 -0 -0 -0 -0 -0 -0 -0 -0 -1 -0 -0 -0 -0 -0 -0 -1 -1 -0 -0 -0 -0 -0 -0 -0 -0 -0 -0 -0 -0 -0 -0 -0 -0 -0 -0 -0
-0 -0 -0 -0 -0 -0 -0 -0 -0 -0 -0 -0 -0 -0 -0 -0 -0 -0 -0 -4 -0 -0 -0 -0 -0 -2 -0 -0 -0 -0 -0 -0 -0 -0 -0 -0 -0 -0 -0 -0 -0 -0 -0 -0 -0
-0 -0 -0 -0 -0 -0 -0 -0 -0 -0 -0 -0 -0 -0 -0 -10 -0 -0 -0 -1 -0 -0 -0 -0 -0 -0 -0 -0 -1 -0 -0 -0 -0 -0 -0 -0 -0 -0 -0 -0 -0 -0 -0 -0 -0
-0 -0 -0 -0 -0 -0 -0 -0 -0 -0 -0 -0 -0 -0 -0 -9 -0 -0 -2 -0 -0 -0 -0 -0 -0 -3 -0 -0 -0 -0 -0 -0 -2 -0 -1 -0 -0 -0 -0 -0 -0 -0 -0 -0 -0
-0 -0 -0 -0 -0 -0 -0 -0 -0 -0 -0 -0 -0 -0 -0 -0 -0 -0 -0 -0 -0 -0 -0 -0 -0 -0 -1 -0 -1 -0 -15 -0 -1 -0 -0 -0 -0 -0 -0 -0 -0 -0 -0 -0 -0
-0 -0 -0 -0 -0 -0 -0 -0 -0 -0 -0 -0 -0 -0 -0 -0 -0 -0 -4 -0 -0 -0 -0 -0 -0 -0 -1 -0 -1 -0 -4 -0 -10 -0 -0 -0 -3 -0 -0 -0 -0 -0 -0 -0 -0
-0 -0 -0 -0 -0 -0 -0 -0 -0 -0 -0 -0 -0 -0 -0 -0 -0 -0 -2 -0 -0 -0 -0 -0 -0 -0 -0 -0 -0 -0 -1 -1 -0 -1 -0 -1 -0 -0 -0 -0 -0 -0 -0 -0 -0
-0 -0 -0 -0 -0 -0 -0 -0 -0 -0 -0 -0 -0 -0 -0 -0 -0 -1 -0 -0 -0 -0 -0 -0 -0 -0 -0 -2 -0 -0 -0 -0 -0 -0 -0 -0 -0 -0 -0 -0 -0 -0 -0 -0 -0
-0 -0 -0 -0 -0 -0 -0 -0 -0 -1 -0 -0 -0 -0 -0 -1 -1 -0 -0 -0 -0 -2 -0 -0 -0 -0 -0 -0 -0 -0 -0 -0 -0 -0 -5 -0 -0 -0 -0 -0 -0 -0 -0 -0 -0
-0 -0 -0 -0 -0 -0 -0 -0 -0 -0 -1 -0 -0 -2 -0 -0 -0 -1 -1 -1 -0 -0 -0 -0 -0 -0 -0 -0 -0 -0 -0 -0 -0 -0 -0 -0 -0 -0 -0 -0 -0 -0 -0 -0 -0
-0 -0 -0 -0 -0 -0 -6 -1 -0 -0 -0 -0 -0 -0 -0 -0 -0 -3 -0 -0 -0 -0 -0 -0 -0 -0 -0 -0 -0 -0 -0 -0 -0 -0 -0 -0 -0 -0 -0 -0 -0 -0 -0 -0 -0
-0 -0 -0 -0 -0 -0 -0 -0 -0 -0 -0 -0 -0 -0 -1 -0 -9 -17 -1 -0 -0 -0 -0 -0 -0 -0 -0 -0 -0 -0 -0 -0 -0 -0 -0 -0 -0 -0 -0 -0 -0 -0 -0 -0 -0
Wind_Speed
17 17 17 18 18 18 18 18 18 18 18 17 16 17 18 18 20 19 20 14 9 12 10 10 10 9 8 8 6 4 8 10 16 8 4 5 8 4 2 8 7 8 9 5 5
18 18 18 18 19 19 19 18 19 18 18 18 17 17 18 18 20 22 18 11 10 16 16 15 14 12 9 11 7 10 11 12 4 4 4 5 8 8 7 11 12 12 10 9 4
19 19 19 20 20 20 20 20 19 19 18 18 17 16 17 18 12 5 6 15 14 16 17 15 12 13 14 9 12 10 13 11 6 7 5 6 8 8 9 13 13 14 13 13 11
20 20 20 21 21 21 21 22 21 20 20 18 16 14 14 9 8 6 3 10 15 18 16 15 13 17 12 14 15 11 14 15 8 5 8 11 11 11 14 17 9 4 6 7 11
21 22 22 22 22 23 23 23 22 21 21 18 15 11 9 8 13 2 3 10 14 16 17 17 17 15 16 11 15 18 16 11 13 14 13 13 16 16 18 15 15 14 14 14 13
23 22 23 24 24 24 24 25 24 23 20 19 16 7 8 12 4 4 5 11 14 16 16 16 11 16 8 16 13 3 11 17 14 15 16 16 18 16 11 10 13 15 17 17 16
23 24 25 25 26 26 26 26 26 23 21 16 11 8 11 23 3 7 5 13 14 16 14 14 11 11 7 10 15 12 15 15 17 18 15 10 19 21 24 20 16 14 13 13 15
24 26 27 28 28 28 28 28 24 20 14 8 8 8 11 3 7 9 11 13 16 11 13 10 9 12 14 3 4 10 14 13 8 19 14 8 16 11 8 17 18 14 13 13 15
26 27 29 30 30 29 28 27 22 10 3 1 6 6 10 4 6 8 13 15 12 10 9 6 9 15 10 13 13 16 12 19 15 10 8 16 11 10 6 7 11 11 12 12 13
26 28 29 30 30 25 26 23 5 6 5 5 3 3 7 3 3 3 8 14 16 13 9 11 9 13 16 15 15 15 21 18 18 10 15 15 20 16 8 11 13 14 14 15 15
26 27 28 30 22 24 17 5 4 6 5 9 10 13 14 6 8 5 6 12 15 16 19 18 17 21 22 23 21 20 11 16 12 8 8 17 20 19 17 18 18 19 19 18 20
26 27 27 25 18 20 15 9 7 4 16 17 22 22 22 18 14 14 8 15 17 21 21 16 27 22 20 21 22 23 22 20 15 11 12 16 23 21 21 20 20 22 20 19 18
26 28 27 27 15 12 8 16 9 8 9 9 4 6 5 6 10 14 15 19 20 21 23 25 5 24 22 22 22 23 22 19 18 12 10 17 24 24 24 26 24 24 20 15 14
27 27 24 27 5 13 8 17 11 5 7 3 3 5 9 7 6 8 16 17 17 22 21 21 26 19 14 27 21 21 17 20 18 12 10 1 9 15 4 11 11 12 13 4 7
27 26 20 8 8 10 16 15 11 4 7 8 8 6 25 7 16 3 9 15 24 19 16 16 10 21 23 21 19 15 12 15 15 16 15 18 9 8 15 14 13 4 7 7 7
28 24 19 9 9 15 15 15 4 6 7 9 9 19 25 17 13 11 4 11 9 24 22 27 13 12 20 20 19 7 7 7 8 9 13 17 15 9 13 10 8 7 8 9 9
28 20 10 9 12 16 14 7 5 6 16 12 14 25 23 15 14 15 14 8 9 9 21 22 25 15 10 14 17 17 13 6 8 9 12 5 16 11 9 10 9 9 9 12 12
26 11 11 9 12 13 10 6 5 10 12 18 18 24 19 12 12 17 15 11 18 15 7 14 18 27 20 24 10 20 17 7 11 10 11 7 9 5 8 9 11 11 12 14 14
20 2 9 13 14 9 10 4 6 9 12 17 21 15 13 17 11 14 6 7 10 15 10 10 8 8 20 20 23 19 24 21 3 5 4 8 8 9 11 10 10 12 14 16 15
5 3 9 15 13 8 4 2 5 7 11 14 17 9 15 13 11 14 10 8 7 9 12 12 10 7 18 14 20 12 10 15 9 9 10 10 14 6 4 5 8 11 14 14 14
4 5 8 14 7 5 5 5 6 8 10 9 14 16 10 11 14 16 4 4 15 13 4 8 6 10 12 12 15 7 6 6 3 11 7 8 4 5 7 8 9 11 13 14 14
4 4 7 10 5 2 4 4 6 9 11 8 8 8 11 14 13 16 7 9 15 14 8 3 6 12 16 22 18 18 7 12 9 13 13 6 5 6 8 9 9 11 12 13 14
6 4 3 10 4 5 6 5 4 10 10 6 8 9 14 13 8 12 9 9 14 12 9 8 3 7 12 5 11 9 14 13 15 9 14 13 7 8 10 12 12 12 12 13 15
5 5 1 1 2 5 7 4 8 5 9 6 13 14 12 12 8 7 9 7 11 7 9 12 6 8 11 11 8 12 15 13 9 6 6 5 15 12 13 13 13 13 13 13 15
2 3 3 5 3 7 6 8 10 9 4 12 8 6 10 8 14 12 13 15 11 1 9 6 6 10 13 15 12 7 13 12 8 10 7 9 10 12 13 12 14 14 14 15 16
6 4 2 11 7 8 3 6 9 9 11 14 13 14 12 10 12 16 14 12 8 7 12 4 4 8 14 11 6 13 15 7 12 11 6 9 10 11 11 12 14 15 16 16 17
2 2 3 8 8 8 5 6 11 13 7 12 14 17 17 13 10 12 11 13 14 14 9 6 5 7 5 7 7 6 15 10 11 13 9 8 9 12 10 11 14 15 16 16 16
Wind_Direction
8 7 357 354 348 345 341 336 332 329 326 323 321 321 320 318 307 285 262 251 199 197 220 185 199 195 201 209 223 243 251 245 234 245 236 142 206 201 256 257 211 199 257 63 88
7 2 358 352 347 342 338 334 330 326 323 321 319 319 320 324 301 278 256 244 204 181 198 191 196 187 200 210 203 215 232 252 333 315 267 184 226 179 211 219 235 233 244 261 261
5 359 354 349 343 338 334 330 326 322 319 316 315 317 318 316 290 248 30 217 210 197 209 207 210 200 225 215 213 213 245 263 251 255 259 252 223 230 243 248 237 229 224 227 227
359 356 351 346 341 336 331 327 323 318 315 311 306 309 317 299 287 39 21 176 195 193 211 208 211 205 221 216 221 249 242 261 263 239 249 247 256 253 240 248 273 249 266 242 207
358 354 349 344 339 333 328 323 319 315 312 306 301 296 300 245 255 315 359 178 180 191 201 195 202 209 228 233 238 236 259 246 258 257 250 264 255 260 262 257 254 256 254 240 238
356 352 347 341 336 332 327 322 316 312 307 300 286 261 255 257 343 348 284 189 189 195 204 204 215 220 276 249 235 240 260 261 251 260 252 254 258 247 252 240 241 247 248 241 235
355 349 344 338 333 329 325 319 314 309 306 300 255 220 246 243 2 307 292 232 207 206 213 217 223 219 222 254 239 264 267 264 246 243 242 262 260 241 249 256 247 239 240 241 237
353 348 343 336 330 326 322 317 313 307 293 293 220 211 253 299 279 267 240 225 216 226 240 231 240 241 244 264 240 237 240 261 241 222 222 206 261 262 237 232 244 243 246 235 232
353 348 341 336 332 326 320 316 308 290 257 235 181 223 262 111 240 255 223 213 200 206 222 242 212 226 211 231 238 222 253 230 242 190 182 205 266 250 132 214 241 244 243 244 235
354 350 345 343 336 333 325 311 300 221 216 199 315 243 245 330 353 295 213 221 201 195 194 202 208 216 222 211 225 230 233 247 264 189 221 221 245 267 231 233 248 258 254 250 238
353 351 347 350 357 347 332 320 313 183 348 283 298 264 291 13 320 233 193 204 199 208 208 201 209 216 215 222 230 251 295 268 247 235 242 244 252 256 255 254 256 257 258 258 258
353 350 348 351 343 7 35 54 43 305 298 277 265 273 279 284 279 267 201 198 200 212 213 208 230 227 226 233 238 247 257 256 263 250 227 273 266 265 258 255 253 255 253 253 258
355 352 349 338 325 356 22 31 349 315 269 295 297 306 336 306 259 250 207 215 206 217 213 218 176 218 237 229 233 239 243 246 254 260 255 270 276 259 248 247 249 251 259 266 265
355 353 349 334 309 340 14 347 335 318 281 130 75 55 340 299 259 253 244 228 230 230 222 237 236 227 233 232 226 243 239 248 259 255 250 201 285 295 214 208 216 220 223 268 297
354 352 346 34 321 337 330 324 319 224 302 45 51 328 334 290 315 116 249 240 245 220 220 218 202 230 224 224 215 239 256 239 235 245 258 248 263 256 242 236 235 176 30 0 333
351 351 341 358 331 349 325 312 248 233 249 10 13 349 341 336 330 325 250 229 275 250 251 244 230 233 245 229 215 217 203 210 222 222 240 234 229 249 239 218 124 82 38 23 10
348 348 355 339 334 322 319 287 260 241 18 5 336 339 323 345 324 344 318 257 221 232 233 246 237 222 235 221 215 201 187 185 203 204 241 282 211 236 58 17 18 69 46 39 30
342 330 1 2 331 328 303 263 300 31 358 334 330 310 302 12 337 336 342 1 25 359 310 229 231 228 195 220 186 204 192 201 210 207 232 186 230 193 66 74 73 69 58 44 37
328 310 9 349 336 318 289 19 354 351 332 325 319 314 333 332 350 320 22 18 35 12 342 346 250 247 205 211 214 198 216 217 313 215 266 178 218 100 121 93 73 58 50 45 35
320 291 17 345 327 302 10 37 346 317 325 325 310 337 324 333 329 332 302 49 11 14 341 355 290 267 194 205 222 225 233 206 209 205 217 199 202 113 103 109 61 50 44 41 32
285 279 14 342 292 22 39 14 317 321 333 324 319 320 328 335 331 309 344 55 16 350 345 330 289 299 323 196 189 172 222 221 238 230 214 205 144 64 48 52 67 50 44 35 30
302 292 15 329 17 66 20 322 299 304 321 313 309 318 329 323 322 305 335 357 358 341 345 52 300 287 289 297 302 234 297 259 227 191 227 258 109 59 62 55 57 51 42 38 31
322 298 77 311 1 360 10 295 283 313 323 323 307 327 306 302 310 333 336 347 2 338 14 334 341 311 295 150 16 29 15 345 328 295 216 210 116 62 62 54 42 39 35 32 29
299 301 125 277 121 330 348 320 312 319 319 315 301 295 303 306 282 297 318 343 342 336 2 343 290 277 281 332 325 337 352 357 3 316 316 255 121 51 37 34 26 22 23 28 27
11 31 14 308 330 322 293 297 304 323 315 310 305 321 332 296 316 296 335 329 325 118 342 352 288 314 305 303 297 42 4 19 34 354 6 64 75 28 21 30 25 21 19 23 22
326 340 335 288 288 283 278 286 310 309 315 303 290 289 307 288 278 292 309 316 307 321 335 342 288 314 291 281 301 74 24 45 26 354 57 105 74 9 15 29 25 21 18 20 14
10 287 280 291 277 280 315 321 303 307 302 306 307 296 289 312 319 303 297 284 279 291 301 301 317 306 294 332 296 88 16 86 68 34 356 22 12 353 18 34 31 19 15 12 8